Home > Weather > Leimen > Past weeks

Flag for Germany Weather for the Past 2 Weeks in Leimen, Baden-Württemberg, Germany

Now
37 °F

Partly cloudy.


Feels Like: 32 °F
Forecast: 37 / 43 °F
Wind: 7 mph from Southwest

Location: Mannheim City

Current Time: Feb 10, 2016 at 6:21:05 AM

Latest Report: Feb 10, 2016 at 5:20 AM


Visibility: N/A

Pressure: 29.42 "Hg

Humidity: 87%

Dew point: 34 °F

Location of LeimenLocation

Historic Weather in Leimen — Graph

°F

Leimen Temperature Yesterday

Maximum temperature yesterday: 54 °F (at 2:20 PM)
Minimum temperature yesterday: 45 °F (at 6:50 AM)
Average temperature yesterday: 48 °F

High & Low Weather Summary for the Past Weeks

 TemperatureHumidityPressure
High59 °F (Jan 26, 3:20 PM)100% (Jan 31, 8:50 AM)30.45 "Hg (Jan 31, 8:50 AM)
Low37 °F (Jan 29, 7:50 AM)50% (Jan 29, 1:50 PM)29.09 "Hg (Feb 9, 4:20 PM)
Average48 °F76%30.05 "Hg
* Reported Jan 25 8:20 PM — Feb 9 8:50 PM, Leimen, Weather by CustomWeather, © 2016

Note: Actual official high and low records may vary slightly from our data, if they occured in-between our weather recording intervals... More about our weather records

Advertising

Leimen Weather History for the Previous 24 Hours

 ConditionsComfort  
Time TempWeatherWind HumidityBarometerVisibility
8:50 PM
Tue, Feb 9
45 °FPartly cloudy.21 mph61%29.24 "HgN/A
8:20 PM48 °FPartly cloudy.21 mph62%29.18 "HgN/A
7:50 PM48 °FPassing clouds.16 mph66%29.15 "HgN/A
7:20 PM48 °FPartly cloudy.13 mph76%29.15 "HgN/A
6:50 PM50 °FPartly cloudy.15 mph71%29.12 "HgN/A
6:20 PM50 °FPassing clouds.14 mph71%29.12 "HgN/A
5:50 PM50 °FPassing clouds.14 mph76%29.09 "HgN/A
5:20 PM50 °FScattered showers. Partly sunny.20 mph94%29.12 "HgN/A
4:20 PM54 °FLight rain. Broken clouds.16 mph72%29.09 "HgN/A
3:50 PM54 °FLight rain. Partly sunny.16 mph72%29.12 "HgN/A
3:20 PM54 °FLight rain. Partly sunny.21 mph72%29.12 "HgN/A
2:50 PM52 °FSprinkles. Broken clouds.20 mph82%29.15 "HgN/A
2:20 PM54 °FScattered showers. Partly sunny.21 mph77%29.18 "HgN/A
1:50 PM52 °FBroken clouds.13 mph82%29.21 "HgN/A
1:20 PM50 °FLight rain. Broken clouds.9 mph94%29.24 "HgN/A
12:50 PM48 °FLight rain. Partly sunny.13 mph94%29.27 "HgN/A
12:20 PM46 °FLight rain. Partly sunny.12 mph100%29.33 "HgN/A
11:50 AM45 °FLight rain. Partly sunny.13 mph100%29.36 "Hg4 mi
10:50 AM45 °FLight rain. Partly sunny.6 mph100%29.45 "Hg6 mi
10:20 AM45 °FLight rain. Broken clouds.7 mph93%29.47 "HgN/A
9:50 AM46 °FLight rain. Mostly cloudy.7 mph82%29.50 "Hg6 mi
8:50 AM46 °FPartly sunny.12 mph82%29.53 "HgN/A
8:20 AM45 °FBroken clouds.12 mph81%29.56 "HgN/A
7:50 AM45 °FPartly sunny.8 mph81%29.59 "HgN/A
7:20 AM45 °FPassing clouds.8 mph81%29.59 "HgN/A
6:50 AM45 °FPassing clouds.9 mph81%29.62 "HgN/A
6:20 AM46 °FPassing clouds.9 mph76%29.62 "HgN/A
Weather by CustomWeather, © 2016

See weather overviewHow to use our weather pages